Time,TemperatureF,DewpointF,PressureIn,WindDirection,WindDirectionDegrees,WindSpeedMPH,WindSpeedGustMPH,Humidity,HourlyPrecipIn,Conditions,Clouds,dailyrainin,SoftwareType,DateUTC
2013-08-01 00:03:00,64.0,56.0,30.01,SSE,157,0.0,0.0,75,0.00,,,0.00,,2013-08-01 04:03:00,
2013-08-01 00:13:00,64.0,56.0,30.01,SE,135,0.0,0.0,75,0.00,,,0.00,,2013-08-01 04:13:00,
2013-08-01 01:23:00,65.0,56.0,30.01,South,178,1.0,3.0,73,0.00,,,0.00,,2013-08-01 05:23:00,
2013-08-01 01:33:00,65.0,56.0,30.01,South,174,3.0,5.0,74,0.00,,,0.00,,2013-08-01 05:33:00,
2013-08-01 01:43:00,65.0,56.0,30.00,SE,135,3.0,4.0,74,0.00,,,0.00,,2013-08-01 05:43:00,
2013-08-01 01:53:00,65.0,56.0,29.99,SSE,153,1.0,5.0,74,0.00,,,0.00,,2013-08-01 05:53:00,
2013-08-01 02:02:00,65.0,56.0,29.98,SSE,164,1.0,9.0,74,0.00,,,0.00,,2013-08-01 06:02:00,
2013-08-01 02:12:00,65.0,56.0,29.98,SSE,160,1.0,8.0,74,0.00,,,0.00,,2013-08-01 06:12:00,
2013-08-01 02:23:00,65.0,56.0,29.98,SE,135,2.0,6.0,74,0.00,,,0.00,,2013-08-01 06:23:00,
2013-08-01 02:33:00,65.0,56.0,29.98,SSE,155,2.0,6.0,74,0.00,,,0.00,,2013-08-01 06:33:00,
2013-08-01 02:43:00,65.0,56.0,29.98,South,179,2.0,6.0,74,0.00,,,0.00,,2013-08-01 06:43:00,
2013-08-01 02:52:00,65.0,57.0,29.97,SE,138,1.0,7.0,75,0.00,,,0.00,,2013-08-01 06:52:00,
2013-08-01 03:03:00,65.0,57.0,29.97,South,191,3.0,6.0,75,0.00,,,0.00,,2013-08-01 07:03:00,
2013-08-01 03:23:00,64.0,56.0,29.96,South,172,2.0,6.0,76,0.00,,,0.00,,2013-08-01 07:23:00,
2013-08-01 03:32:00,64.0,57.0,29.96,SSE,156,2.0,8.0,77,0.00,,,0.00,,2013-08-01 07:32:00,
2013-08-01 03:43:00,64.0,57.0,29.96,SSE,168,2.0,8.0,77,0.00,,,0.00,,2013-08-01 07:43:00,
2013-08-01 03:53:00,64.0,57.0,29.95,SSE,156,4.0,8.0,78,0.00,,,0.00,,2013-08-01 07:53:00,
2013-08-01 04:08:00,64.0,57.0,29.94,SSE,166,2.0,7.0,78,0.00,,,0.00,,2013-08-01 08:08:00,
2013-08-01 04:16:00,64.0,57.0,29.94,South,182,3.0,6.0,79,0.00,,,0.00,,2013-08-01 08:16:00,
2013-08-01 04:28:00,64.0,57.0,29.94,SSE,150,2.0,7.0,79,0.00,,,0.00,,2013-08-01 08:28:00,
2013-08-01 04:40:00,64.0,57.0,29.94,SSE,159,3.0,6.0,79,0.00,,,0.00,,2013-08-01 08:40:00,
2013-08-01 04:47:00,64.0,58.0,29.93,South,175,4.0,6.0,80,0.00,,,0.00,,2013-08-01 08:47:00,
2013-08-01 05:24:00,64.0,58.0,29.93,SSW,212,3.0,7.0,81,0.00,,,0.00,,2013-08-01 09:24:00,
2013-08-01 05:46:00,64.0,58.0,29.93,SSE,154,2.0,7.0,81,0.00,,,0.00,,2013-08-01 09:46:00,
2013-08-01 06:01:00,64.0,58.0,29.92,South,173,3.0,10.0,81,0.00,,,0.00,,2013-08-01 10:01:00,
2013-08-01 06:17:00,64.0,58.0,29.92,South,182,2.0,8.0,81,0.00,,,0.00,,2013-08-01 10:17:00,
2013-08-01 06:22:00,64.0,58.0,29.92,South,169,4.0,8.0,81,0.00,,,0.00,,2013-08-01 10:22:00,
2013-08-01 07:02:00,64.0,58.0,29.91,South,177,4.0,12.0,82,0.00,,,0.00,,2013-08-01 11:02:00,
2013-08-01 07:14:00,65.0,59.0,29.91,South,173,4.0,8.0,82,0.00,,,0.00,,2013-08-01 11:14:00,
2013-08-01 07:23:00,65.0,59.0,29.91,South,185,3.0,8.0,82,0.00,,,0.00,,2013-08-01 11:23:00,
2013-08-01 07:45:00,65.0,59.0,29.91,SSW,201,2.0,8.0,82,0.00,,,0.00,,2013-08-01 11:45:00,
2013-08-01 08:39:00,67.0,61.0,29.90,South,185,3.0,6.0,81,0.00,,,0.00,,2013-08-01 12:39:00,
2013-08-01 08:59:00,68.0,62.0,29.90,South,186,4.0,6.0,80,0.00,,,0.00,,2013-08-01 12:59:00,
2013-08-01 09:15:00,68.0,62.0,29.90,South,182,2.0,6.0,80,0.00,,,0.00,,2013-08-01 13:15:00,
2013-08-01 10:02:00,68.0,62.0,29.88,SW,233,2.0,12.0,81,0.00,,,0.00,,2013-08-01 14:02:00,
2013-08-01 10:19:00,68.0,62.0,29.88,WSW,238,1.0,4.0,81,0.00,,,0.00,,2013-08-01 14:19:00,
2013-08-01 11:16:00,69.0,64.0,29.87,South,181,3.0,11.0,83,0.00,,,0.00,,2013-08-01 15:16:00,
2013-08-01 12:43:00,73.0,65.0,29.86,South,180,3.0,4.0,77,0.00,,,0.00,,2013-08-01 16:43:00,
2013-08-01 12:51:00,72.0,64.0,29.86,SSW,202,0.0,3.0,77,0.00,,,0.00,,2013-08-01 16:51:00,
2013-08-01 13:17:00,74.0,66.0,29.87,SSW,202,0.0,3.0,77,0.00,,,0.00,,2013-08-01 17:17:00,
2013-08-01 13:35:00,71.0,64.0,29.86,SE,135,1.0,5.0,78,0.00,,,0.00,,2013-08-01 17:35:00,
2013-08-01 13:54:00,72.0,65.0,29.86,SSW,209,2.0,4.0,78,0.00,,,0.00,,2013-08-01 17:54:00,
2013-08-01 14:02:00,75.0,67.0,29.87,South,180,1.0,5.0,76,0.00,,,0.00,,2013-08-01 18:02:00,
2013-08-01 14:16:00,76.0,67.0,29.86,South,184,3.0,4.0,73,0.00,,,0.00,,2013-08-01 18:16:00,
2013-08-01 14:54:00,77.0,67.0,29.86,SW,225,0.0,2.0,71,0.00,,,0.00,,2013-08-01 18:54:00,
2013-08-01 15:16:00,77.0,66.0,29.85,SW,232,3.0,7.0,70,0.00,,,0.00,,2013-08-01 19:16:00,
2013-08-01 16:00:00,79.0,67.0,29.85,West,270,0.0,6.0,66,0.00,,,0.00,,2013-08-01 20:00:00,
2013-08-01 16:14:00,78.0,65.0,29.87,SE,143,3.0,9.0,64,0.00,,,0.00,,2013-08-01 20:14:00,
2013-08-01 17:14:00,70.0,64.0,29.87,NNE,22,0.0,0.0,80,0.22,,,0.22,,2013-08-01 21:14:00,
2013-08-01 17:35:00,72.0,65.0,29.86,NNE,22,1.0,1.0,78,0.00,,,0.22,,2013-08-01 21:35:00,
2013-08-01 17:43:00,71.0,63.0,29.86,NE,45,0.0,6.0,77,0.00,,,0.22,,2013-08-01 21:43:00,
2013-08-01 18:10:00,71.0,64.0,29.87,NE,45,0.0,1.0,78,0.00,,,0.22,,2013-08-01 22:10:00,
2013-08-01 18:46:00,70.0,62.0,29.88,NE,45,0.0,0.0,76,0.00,,,0.22,,2013-08-01 22:46:00,
2013-08-01 19:25:00,69.0,61.0,29.87,NE,45,0.0,0.0,76,0.00,,,0.22,,2013-08-01 23:25:00,
2013-08-01 19:33:00,68.0,60.0,29.87,NE,45,0.0,0.0,76,0.00,,,0.22,,2013-08-01 23:33:00,
2013-08-01 19:49:00,68.0,61.0,29.88,NNE,22,0.0,0.0,77,0.00,,,0.22,,2013-08-01 23:49:00,
2013-08-01 19:57:00,68.0,61.0,29.88,NE,45,0.0,0.0,77,0.00,,,0.22,,2013-08-01 23:57:00,
2013-08-01 20:09:00,67.0,60.0,29.88,NE,45,0.0,0.0,77,0.00,,,0.22,,2013-08-02 00:09:00,
2013-08-01 20:19:00,67.0,60.0,29.88,NE,45,0.0,0.0,78,0.00,,,0.22,,2013-08-02 00:19:00,
2013-08-01 20:29:00,66.0,59.0,29.88,NE,45,0.0,0.0,78,0.00,,,0.22,,2013-08-02 00:29:00,
2013-08-01 20:50:00,65.0,58.0,29.88,NE,45,0.0,0.0,79,0.00,,,0.22,,2013-08-02 00:50:00,
2013-08-01 20:57:00,64.0,58.0,29.88,NE,45,0.0,0.0,80,0.00,,,0.22,,2013-08-02 00:57:00,
2013-08-01 21:29:00,62.0,56.0,29.88,NE,45,0.0,0.0,82,0.00,,,0.22,,2013-08-02 01:29:00,
2013-08-01 21:40:00,62.0,56.0,29.88,NE,45,0.0,0.0,82,0.00,,,0.22,,2013-08-02 01:40:00,
2013-08-01 21:48:00,62.0,57.0,29.89,NE,45,0.0,0.0,83,0.00,,,0.22,,2013-08-02 01:48:00,
2013-08-01 21:57:00,61.0,56.0,29.88,NE,45,0.0,0.0,83,0.00,,,0.22,,2013-08-02 01:57:00,
2013-08-01 22:09:00,61.0,56.0,29.89,NE,45,0.0,0.0,83,0.00,,,0.22,,2013-08-02 02:09:00,
2013-08-01 22:28:00,61.0,56.0,29.88,NE,45,0.0,0.0,84,0.00,,,0.22,,2013-08-02 02:28:00,
2013-08-01 22:52:00,61.0,56.0,29.88,NE,45,0.0,0.0,85,0.00,,,0.22,,2013-08-02 02:52:00,
2013-08-01 23:13:00,61.0,56.0,29.89,NE,45,0.0,0.0,85,0.00,,,0.22,,2013-08-02 03:13:00,
2013-08-01 23:23:00,60.0,55.0,29.89,NE,45,0.0,0.0,85,0.00,,,0.22,,2013-08-02 03:23:00,
2013-08-01 23:39:00,60.0,55.0,29.89,NE,45,0.0,0.0,85,0.00,,,0.22,,2013-08-02 03:39:00,
2013-08-01 23:49:00,60.0,55.0,29.89,SSE,157,0.0,2.0,85,0.00,,,0.22,,2013-08-02 03:49:00,
2013-08-01 23:56:00,60.0,55.0,29.89,SSE,157,0.0,3.0,85,0.00,,,0.22,,2013-08-02 03:56:00,